Time,TemperatureF,DewpointF,PressureIn,WindDirection,WindDirectionDegrees,WindSpeedMPH,WindSpeedGustMPH,Humidity,HourlyPrecipIn,Conditions,Clouds,dailyrainin,SolarRadiationWatts/m^2,SoftwareType,DateUTC
2013-05-13 01:52:00,63.0,34.0,-100.00,WSW,243,10.0,15.0,34,0.00,,,0.00,0.000000,,2013-05-13 08:52:00,
2013-05-13 02:52:00,62.0,33.0,-100.00,WSW,244,12.0,14.0,33,0.00,,,0.00,0.000000,,2013-05-13 09:52:00,
2013-05-13 03:52:00,63.0,32.0,-100.00,WSW,253,11.0,15.0,31,-99.99,,,0.00,0.000000,,2013-05-13 10:52:00,
2013-05-13 04:02:00,63.0,32.0,-100.00,WSW,253,11.0,15.0,31,-99.99,,,0.00,0.000000,,2013-05-13 11:02:00,
2013-05-13 04:52:00,62.0,30.0,-100.00,WSW,251,11.0,16.0,30,-99.99,,,0.00,0.000000,,2013-05-13 11:52:00,
2013-05-13 05:52:00,60.0,31.0,-100.00,WSW,250,11.0,14.0,33,-99.99,,,0.00,0.000000,,2013-05-13 12:52:00,
2013-05-13 08:53:00,63.0,42.0,-100.00,West,276,7.0,11.0,46,0.00,,,0.00,329.000000,,2013-05-13 15:53:00,
2013-05-13 09:03:00,63.0,42.0,-100.00,West,276,7.0,11.0,46,0.00,,,0.00,329.000000,,2013-05-13 16:03:00,
2013-05-13 09:21:00,63.0,42.0,-100.00,West,276,7.0,11.0,46,0.00,,,0.00,329.000000,,2013-05-13 16:21:00,
2013-05-13 10:54:00,67.0,45.0,-100.00,WSW,240,6.0,10.0,45,0.00,,,0.00,707.000000,,2013-05-13 17:54:00,
2013-05-13 11:03:00,67.0,45.0,-100.00,WSW,240,6.0,10.0,45,0.00,,,0.00,707.000000,,2013-05-13 18:03:00,
2013-05-13 11:12:00,67.0,45.0,-100.00,WSW,240,6.0,10.0,45,0.00,,,0.00,707.000000,,2013-05-13 18:12:00,
2013-05-13 11:23:00,67.0,45.0,-100.00,WSW,240,6.0,10.0,45,0.00,,,0.00,707.000000,,2013-05-13 18:23:00,
2013-05-13 11:52:00,74.0,48.0,-100.00,WNW,303,4.0,9.0,40,0.00,,,0.00,848.000000,,2013-05-13 18:52:00,
2013-05-13 12:01:00,74.0,48.0,-100.00,WNW,303,4.0,9.0,40,0.00,,,0.00,848.000000,,2013-05-13 19:01:00,
2013-05-13 12:11:00,74.0,48.0,-100.00,WNW,303,4.0,9.0,40,0.00,,,0.00,848.000000,,2013-05-13 19:11:00,
2013-05-13 12:21:00,74.0,48.0,-100.00,WNW,303,4.0,9.0,40,0.00,,,0.00,848.000000,,2013-05-13 19:21:00,
2013-05-13 12:53:00,74.0,52.0,-100.00,WSW,248,9.0,12.0,46,0.00,,,0.00,935.000000,,2013-05-13 19:53:00,
2013-05-13 13:01:00,74.0,52.0,-100.00,WSW,248,9.0,12.0,46,0.00,,,0.00,935.000000,,2013-05-13 20:01:00,
2013-05-13 13:11:00,74.0,52.0,-100.00,WSW,248,9.0,12.0,46,0.00,,,0.00,935.000000,,2013-05-13 20:11:00,
2013-05-13 13:23:00,74.0,52.0,-100.00,WSW,248,9.0,12.0,46,0.00,,,0.00,935.000000,,2013-05-13 20:23:00,
2013-05-13 13:53:00,77.0,53.0,-100.00,WSW,247,10.0,14.0,43,0.00,,,0.00,970.000000,,2013-05-13 20:53:00,
2013-05-13 14:02:00,77.0,53.0,-100.00,WSW,247,10.0,14.0,43,0.00,,,0.00,970.000000,,2013-05-13 21:02:00,
2013-05-13 14:14:00,77.0,53.0,-100.00,WSW,247,10.0,14.0,43,0.00,,,0.00,970.000000,,2013-05-13 21:14:00,
2013-05-13 14:23:00,77.0,53.0,-100.00,WSW,247,10.0,14.0,43,0.00,,,0.00,970.000000,,2013-05-13 21:23:00,
2013-05-13 14:53:00,79.0,54.0,-100.00,WSW,252,10.0,16.0,42,0.00,,,-99.99,950.000000,,2013-05-13 21:53:00,
2013-05-13 15:02:00,79.0,54.0,-100.00,WSW,252,10.0,16.0,42,0.00,,,-99.99,950.000000,,2013-05-13 22:02:00,
2013-05-13 15:12:00,79.0,54.0,-100.00,WSW,252,10.0,16.0,42,0.00,,,-99.99,950.000000,,2013-05-13 22:12:00,
2013-05-13 15:22:00,79.0,54.0,-100.00,WSW,252,10.0,16.0,42,0.00,,,-99.99,950.000000,,2013-05-13 22:22:00,
2013-05-13 15:52:00,79.0,54.0,-100.00,WSW,249,11.0,16.0,42,0.00,,,0.00,876.000000,,2013-05-13 22:52:00,
2013-05-13 16:01:00,79.0,54.0,-100.00,WSW,249,11.0,16.0,42,0.00,,,0.00,876.000000,,2013-05-13 23:01:00,
2013-05-13 16:12:00,79.0,54.0,-100.00,WSW,249,11.0,16.0,42,0.00,,,0.00,876.000000,,2013-05-13 23:12:00,
2013-05-13 16:23:00,79.0,54.0,-100.00,WSW,249,11.0,16.0,42,0.00,,,0.00,876.000000,,2013-05-13 23:23:00,
2013-05-13 16:54:00,76.0,53.0,-100.00,WSW,246,14.0,20.0,45,0.00,,,0.00,612.000000,,2013-05-13 23:54:00,
2013-05-13 17:02:00,76.0,53.0,-100.00,WSW,246,14.0,20.0,45,0.00,,,0.00,612.000000,,2013-05-14 00:02:00,
2013-05-13 17:12:00,76.0,53.0,-100.00,WSW,246,14.0,20.0,45,0.00,,,0.00,612.000000,,2013-05-14 00:12:00,
2013-05-13 17:22:00,76.0,53.0,-100.00,WSW,246,14.0,20.0,45,0.00,,,0.00,612.000000,,2013-05-14 00:22:00,
2013-05-13 17:52:00,74.0,53.0,-100.00,WSW,253,14.0,20.0,48,0.00,,,0.00,571.000000,,2013-05-14 00:52:00,
2013-05-13 18:01:00,74.0,53.0,-100.00,WSW,253,14.0,20.0,48,0.00,,,0.00,571.000000,,2013-05-14 01:01:00,
2013-05-13 18:11:00,74.0,53.0,-100.00,WSW,253,14.0,20.0,48,0.00,,,0.00,571.000000,,2013-05-14 01:11:00,
2013-05-13 18:21:00,74.0,53.0,-100.00,WSW,253,14.0,20.0,48,0.00,,,0.00,571.000000,,2013-05-14 01:21:00,
2013-05-13 18:53:00,72.0,52.0,-100.00,West,259,13.0,20.0,49,0.00,,,0.00,378.000000,,2013-05-14 01:53:00,
2013-05-13 19:02:00,72.0,52.0,-100.00,West,259,13.0,20.0,49,0.00,,,0.00,378.000000,,2013-05-14 02:02:00,
2013-05-13 19:11:00,72.0,52.0,-100.00,West,259,13.0,20.0,49,0.00,,,0.00,378.000000,,2013-05-14 02:11:00,
2013-05-13 19:21:00,72.0,52.0,-100.00,West,259,13.0,20.0,49,0.00,,,0.00,378.000000,,2013-05-14 02:21:00,
2013-05-13 19:52:00,68.0,52.0,-100.00,WSW,258,12.0,17.0,56,0.00,,,0.00,149.000000,,2013-05-14 02:52:00,
2013-05-13 20:01:00,68.0,52.0,-100.00,WSW,258,12.0,17.0,56,0.00,,,0.00,149.000000,,2013-05-14 03:01:00,
2013-05-13 20:11:00,68.0,52.0,-100.00,WSW,258,12.0,17.0,56,0.00,,,0.00,149.000000,,2013-05-14 03:11:00,
2013-05-13 20:21:00,68.0,52.0,-100.00,WSW,258,12.0,17.0,56,0.00,,,0.00,149.000000,,2013-05-14 03:21:00,
2013-05-13 20:53:00,63.0,48.0,-100.00,WSW,256,12.0,19.0,58,0.00,,,0.00,12.000000,,2013-05-14 03:53:00,
2013-05-13 21:02:00,63.0,48.0,-100.00,WSW,256,12.0,19.0,58,0.00,,,0.00,12.000000,,2013-05-14 04:02:00,
2013-05-13 21:13:00,63.0,48.0,-100.00,WSW,256,12.0,19.0,58,0.00,,,0.00,12.000000,,2013-05-14 04:13:00,
2013-05-13 21:22:00,63.0,48.0,-100.00,WSW,256,12.0,19.0,58,0.00,,,0.00,12.000000,,2013-05-14 04:22:00,
2013-05-13 21:53:00,61.0,48.0,-100.00,West,262,12.0,16.0,63,0.00,,,0.00,0.000000,,2013-05-14 04:53:00,
2013-05-13 22:01:00,61.0,48.0,-100.00,West,262,12.0,16.0,63,0.00,,,0.00,0.000000,,2013-05-14 05:01:00,
2013-05-13 22:12:00,61.0,48.0,-100.00,West,262,12.0,16.0,63,0.00,,,0.00,0.000000,,2013-05-14 05:12:00,
2013-05-13 22:21:00,61.0,48.0,-100.00,West,262,12.0,16.0,63,0.00,,,0.00,0.000000,,2013-05-14 05:21:00,
2013-05-13 22:52:00,62.0,47.0,-100.00,WNW,284,11.0,16.0,57,0.00,,,0.00,0.000000,,2013-05-14 05:52:00,
2013-05-13 23:01:00,62.0,47.0,-100.00,WNW,284,11.0,16.0,57,0.00,,,0.00,0.000000,,2013-05-14 06:01:00,
2013-05-13 23:12:00,62.0,47.0,-100.00,WNW,284,11.0,16.0,57,0.00,,,0.00,0.000000,,2013-05-14 06:12:00,
2013-05-13 23:21:00,62.0,47.0,-100.00,WNW,284,11.0,16.0,57,0.00,,,0.00,0.000000,,2013-05-14 06:21:00,
2013-05-13 23:52:00,61.0,47.0,-100.00,West,262,12.0,21.0,59,0.00,,,0.00,0.000000,,2013-05-14 06:52:00,